Main page
METAR-TAF:

METAR-TAF

Airports :

Pembrey, Wales

latitude: 51-43N, longitude: 004-22W, elevation: 3 m

Current weather observation

The report was made 42 minutes ago, at 01:50 UTC
Wind 2 kt from the South/Southeast
Temperature 4°C
Humidity 93%
Pressure 1024 hPa
Visibility 10 km or more

METAR: EGOP 170150Z AUTO 15002KT 9999 // SCT038/// 04/03 Q1024

Time: 02:32 (02:32 UTC)


TAF: missing

Weather observations and forecasts of more than 4000 airports (METAR and TAF reports).

The available stations are represented by yellow and red dots on the map.

Hover mouse over dot to see the name of the station.

Then click to see weather observations and forecasts.

To change the map : click on the green buttons with a black cross to zoom in, on the green button with a dash to zoom out, or on the green arrows for adjacent maps.


METAR-TAF: